Terminal Aerodrome Forecast
Issued by NWS Mobile, AL

Home | Current Version | Previous Version | Text Only | Print | Product List | Glossary On
Versions: 1 2 3 4 5 6 7 8 9 10 11 12 13 14 15 16 17 18 19 20 21 22 23 24 25 26 27 28 29 30 31 32 33 34 35 36 37 38
000
FTUS44 KMOB 232300
TAFMOB
TAF
KMOB 232334Z 2400/2424 15007KT P6SM FEW025
     FM241500 23005KT P6SM VCTS SCT050CB OVC100=

USA.gov is the U.S. government's official web portal to all federal, state and local government web resources and services.